Regional Weather Roundup
Issued by NWS

Home | Current Version | Previous Version | Text Only | Print | Product List | Glossary Off
Versions: 1 2 3 4 5 6 7 8 9 10 11 12 13 14 15 16 17 18 19 20 21 22 23 24 25 26 27 28 29 30 31 32 33 34 35 36 37 38 39 40 41 42 43 44 45 46 47 48 49 50

000
ASUS43 KOAX 041710
RWRNE

WEATHER ROUNDUP FOR NEBRASKA
NATIONAL WEATHER SERVICE OMAHA NE
1100 AM CST WED MAR 04 2015

NOTES: SATELLITE DATA IS BEING USED TO AUGMENT CLOUD COVER ABOVE
       12000 FEET.
       "FAIR" INDICATES FEW OR NO CLOUDS BELOW 12,000 FEET WITH NO
       SIGNIFICANT WEATHER AND/OR OBSTRUCTIONS TO VISIBILITY.

  * THESE STATIONS DO NOT REPORT WEATHER SUCH AS RAIN...SNOW OR FOG.

NEZ001>004-019>022-054>056-041800-
NEBRASKA PANHANDLE

CITY           SKY/WX    TMP DP  RH WIND       PRES   REMARKS
SCOTTSBLUFF    SUNNY     22  -2  35 NW18      30.19F WCI   7
ALLIANCE       SUNNY     18   0  45 NW20G26   30.18S WCI   2
CHADRON        CLOUDY    13  -1  54 NW16G25   30.24S WCI  -3
KIMBALL        SUNNY     18   2  48 W3        30.13S
SIDNEY         MOSUNNY   19   1  45 NW17      30.19S WCI   4
$$

NEZ057>060-069>072-079>082-041800-
SOUTHWEST NEBRASKA

CITY           SKY/WX    TMP DP  RH WIND       PRES   REMARKS
NORTH PLATTE   SUNNY     23   4  44 NW12      30.26S WCI  12
IMPERIAL         N/A     20   3  48 NW12      30.25S WCI   8
LEXINGTON      SUNNY     21  10  63 NW13      30.28F WCI   9
MCCOOK         MOSUNNY   23  13  65 NW9       30.29S WCI  13
OGALLALA       SUNNY     20   7  56 NW10      30.24F WCI   9
$$

NEZ005>010-023>029-035>040-094-041800-
NORTH CENTRAL NEBRASKA

CITY           SKY/WX    TMP DP  RH WIND       PRES   REMARKS
VALENTINE      SUNNY     16   1  51 NW17G23   30.27R WCI   0
AINSWORTH      SUNNY     17   1  49 NW14      30.25S WCI   3
BROKEN BOW     SUNNY     23   6  48 NW16      30.25S WCI  10
O`NEILL        SUNNY     19  -2  39 NW21G29   30.30R WCI   3
ORD            SUNNY     25   0  33 NW17      30.27S WCI  12
THEDFORD       SUNNY     20   4  50 N10G17    30.24S WCI   9
$$

NEZ041-046>049-061>064-073>077-083>087-041800-
SOUTH CENTRAL NEBRASKA

CITY           SKY/WX    TMP DP  RH WIND       PRES   REMARKS
GRAND ISLAND   SUNNY     24   7  48 NW15      30.30F WCI  11
AURORA         MOSUNNY   24   8  50 NW14      30.30S WCI  11
HASTINGS       MIX PCPN  22   6  50 NW13      30.29S WCI  10
HEBRON         SUNNY     25   8  49 NW9       30.32F WCI  15
HOLDREGE       MOSUNNY   21  10  62 NW8       30.29S WCI  11
KEARNEY *      MOSUNNY   21   9  58 NW13      30.29F WCI   9
YORK           MOSUNNY   23   9  54 NW16      30.30S WCI  10
$$

NEZ011>018-030>034-042>045-041800-
NORTHEAST NEBRASKA

CITY           SKY/WX    TMP DP  RH WIND       PRES   REMARKS
NORFOLK        SUNNY     24   0  35 NW21G29   30.28R WCI   9
ALBION         SUNNY     25  -3  29 N17G25    30.28R WCI  11
BLAIR          SUNNY     27   4  36 W15G21    30.27F WCI  15
COLUMBUS *     MOSUNNY   27   1  33 NW22G31   30.30S WCI  12
FREMONT        SUNNY     30   1  29 NW22      30.29F WCI  16
TEKAMAH        MOSUNNY   29   4  34 NW21G26   30.29S WCI  16
WAYNE          SUNNY     24   3  40 NW20G28   30.29R WCI   9
$$

NEZ050>053-065>068-078-088>093-041800-
SOUTHEAST NEBRASKA

CITY           SKY/WX    TMP DP  RH WIND       PRES   REMARKS
LINCOLN        SUNNY     26   8  46 NW18G25   30.32S WCI  13
OMAHA EPPLEY   MOSUNNY   26   5  40 NW10      30.30F WCI  16
BEATRICE       FAIR      24  11  56 NW7       30.32S WCI  16
FALLS CITY     MOSUNNY   25  10  53 VRB5      30.33F WCI  19
NEBRASKA CITY  SUNNY     24  10  54 W6        30.31F WCI  17
PLATTSMOUTH    SUNNY     25   8  49 NW8       30.30S WCI  16
$$

NEZ044-045-051>053-067-041800-
OMAHA AREA

CITY           SKY/WX    TMP DP  RH WIND       PRES   REMARKS
OMAHA EPPLEY   MOSUNNY   26   5  40 NW10      30.30F WCI  16
BLAIR          SUNNY     27   4  36 W15G21    30.27F WCI  15
FREMONT        SUNNY     30   1  29 NW22      30.29F WCI  16
MILLARD        SUNNY     26   8  45 NW10G18   30.30F WCI  17
OFFUTT AFB     SUNNY     25   8  47 NW8       30.30S WCI  17
PLATTSMOUTH    SUNNY     25   8  49 NW8       30.30S WCI  16
WAHOO          FAIR      27   8  44 NW12      30.30S WCI  16
$$



USA.gov is the U.S. government's official web portal to all federal, state and local government web resources and services.